Location: Chavannes
(47.1090°N, 0.2226°W)
Time: 12:40:17
(UTC+00:00)

Iridium 4 Rocket - Pass Details

Date: 16 October 2021
Orbit: 586 x 903 km, 86.9° (Epoch: 02 December)

Event Time Altitude Azimuth Distance (km) Brightness Sun altitude
Rises 19:25:17 0° 351° (N) 2,875 6.8 -23.5°
Reaches altitude 10° 19:27:30 10° 344° (NNW) 1,994 6.0 -23.8°
Maximum altitude 19:31:39 44° 273° (W) 902 4.3 -24.5°
Drops below altitude 10° 19:36:04 10° 202° (SSW) 2,129 5.9 -25.2°
Sets 19:38:30 0° 196° (SSW) 3,094 6.7 -25.6°
